Location: Góry Miechowskie
(50.3599°N, 20.1803°E)
Time: 16:05:33
(UTC+00:00)

Vanguard 1 Rocket - Pass Details

Date: 16 September 2024
Orbit: 650 x 4218 km, 34.3° (Epoch: 07 October)

Event Time Altitude Azimuth Distance (km) Brightness Sun altitude
Rises 02:08:35 0° 225° (SW) 5,487 - -20.2°
Reaches altitude 10° 02:11:52 10° 217° (SW) 4,890 - -19.7°
Exits shadow 02:14:08 17° 211° (SSW) 4,562 10.4 -19.4°
Maximum altitude 02:25:48 41° 154° (SSE) 4,264 10.7 -17.8°
Drops below altitude 10° 02:47:21 10° 95° (E) 7,390 13.0 -14.6°
Sets 02:53:52 0° 90° (E) 8,461 13.7 -13.7°
